Location: *
(44.3526°S, 44.9014°W)
Time: 23:19:22
(UTC+00:00)

ARIANE 6 FM1 Upper Stage - Pass Details

Date: 13 May 2025
Orbit: 531 x 610 km, 62.0° (Epoch: 14 June)

Event Time Altitude Azimuth Distance (km) Brightness Sun altitude
Rises 21:16:09 0° 221° (SW) 2,858 6.7 -16.4°
Reaches altitude 10° 21:18:28 10° 221° (SW) 1,937 5.8 -16.8°
Maximum altitude 21:22:50 81° 307° (NW) 595 2.8 -17.6°
Enters shadow 21:26:27 14° 34° (NNE) 1,624 4.8 -18.2°
